Regional Weather Roundup
Issued by NWS

Home | Current Version | Previous Version | Text Only | Print | Product List | Glossary On
Versions: 1 2 3 4 5 6 7 8 9 10 11 12 13 14 15 16 17 18 19 20 21 22 23 24 25 26 27 28 29 30 31 32 33 34 35 36 37 38 39 40 41 42 43 44 45 46 47 48 49 50
000
ASUS46 KPQR 260710
RWROR

OREGON REGIONAL WEATHER ROUNDUP
NATIONAL WEATHER SERVICE PORTLAND OR
1100 PM PST SUN JAN 25 2015

NOTE: "FAIR" INDICATES FEW OR NO CLOUDS BELOW 12,000 FEET WITH
NO SIGNIFICANT WEATHER AND/OR OBSTRUCTIONS TO VISIBILITY.

ORZ001>013-260800-
NORTHWEST OREGON


CITY           SKY/WX    TMP DP  RH WIND       PRES   REMARKS
ASTORIA        CLEAR     45  43  93 CALM      29.93F
NEWPORT        CLEAR     52  46  82 E7        29.97S
PORTLAND       FOG       42  42 100 CALM      29.98F VSB 1/4
VANCOUVER WA   FOG       42  41  96 CALM      29.98F VSB 1/4
SCAPPOOSE      FOG       41  40  96 CALM      29.98F VSB 1/4
HILLSBORO      FOG       44  44 100 CALM      29.99S VSB 1/4
AURORA         FOG       42  42 100 S6        30.01S VSB 1/4
MCMINNVILLE    FOG       45  44  97 S3        30.01S VSB 1/4
SALEM          FOG       45  44  97 S7        30.00S VSB 1
CORVALLIS      CLOUDY    46  43  87 CALM      30.02S VSB 1/4
EUGENE         FOG       43  42  97 S3        30.02R VSB 1/8
$$

ORZ021-028-260800-
SOUTHWEST OREGON


CITY           SKY/WX    TMP DP  RH WIND       PRES   REMARKS
NORTH BEND     CLEAR     50  50 100 SE9       29.98S
BROOKINGS      CLEAR     52  49  89 VRB3      30.01F
ROSEBURG       CLEAR     49  46  90 SW6       30.02F
SEXTON SUMMIT  CLEAR     58  35  42 SE10      30.10S
MEDFORD        CLEAR     41  38  89 SW5       30.06R
$$

ORZ014>016-041-260800-
COLUMBIA GORGE


CITY           SKY/WX    TMP DP  RH WIND       PRES   REMARKS
TROUTDALE      CLEAR     52  44  74 E15       29.96F
THE DALLES     CLOUDY    46  44  93 E6        30.15S
$$

ORZ029>031-041-044-049-050-061>064-502-503-505>511-260800-
EASTERN OREGON


CITY           SKY/WX    TMP DP  RH WIND       PRES   REMARKS
REDMOND        PTCLDY    54  38  54 SE8       30.13S
BEND           PTCLDY    48  37  66 SE8       30.16S
PRINEVILLE     CLEAR     54  39  58 SE12      30.16S
KLAMATH FALLS  CLEAR     36  32  85 CALM      30.19S
LAKEVIEW       CLEAR     32  28  86 N8        30.27S WCI  25
HERMISTON      CLOUDY    38  37  97 N3        30.16S FOG
PENDLETON      FOG       33  32  96 NW10      30.11R VSB<1/4 WCI  25
JOHN DAY       CLEAR     46  34  62 E9        30.23S
MEACHAM        CLEAR     42  33  70 CALM      30.19F
LA GRANDE      CLEAR     43  28  56 S25G37    30.25F
BAKER CITY     CLEAR     30  29  96 CALM      30.34F
BURNS          CLEAR     31  28  89 W3        30.30S
ROME             N/A     34  30  85 NE8       30.33S WCI  27
ONTARIO        CLOUDY    35  31  85 CALM      30.46S
$$


USA.gov is the U.S. government's official web portal to all federal, state and local government web resources and services.